Погода в Бухаре

Узбекистан     39°46′04″N   64°25′18″E
темп.,
°C
ветер,
м/с
пор.,
м/с
влажн.,
%
обл.,
%
осадки,
мм/ч
давл.,
гПа
погр.,
м
1 марта, пн
пн123:00+9всв342477 0.0 101933
02:00+8юв45280 0.0 101842
05:00+7юв56380 0.0 101896
08:00+6юв58430 0.0 1018175
11:00+13ю711310 0.0 1018757
14:00+17юз79190 0.0 1017935
17:00+18зюз45150 0.0 1016991
20:00+14сз34270 0.0 101971
2 марта, вт
вт223:00+12ссз343147 0.0 102069
02:00+10ссв233492 0.0 102127
05:00+10с453294 0.0 102073
08:00+9ссв3434100 0.0 102269
11:00+13ссв452688 0.0 1022467
14:00+16с342018 0.0 10211143
17:00+16с65219 0.0 10201249
20:00+13ссв58280 0.0 1023360
3 марта, ср
ср323:00+10с693833 0.0 1023343
02:00+9с5845100 0.0 1023267
05:00+7с5853100 0.0 1023242
08:00+6с465675 0.0 1023165
11:00+11ссз444158 0.0 1023452
14:00+14сз233279 0.0 10211293
17:00+15сз222939 0.0 10191468
20:00+13с35350 0.0 1019231
4 марта, чт
чт423:00+11ссв34410 0.0 1019101
02:00+10св33460 0.0 101839
05:00+9в23450 0.0 101727
08:00+10вюв344169 0.0 101747
11:00+14ююв453873 0.0 1017332
14:00+19юз793316 0.0 10171729
17:00+20з88288 0.0 10172175
20:00+13сз9124033 0.0 1021985
5 марта, пт
пт523:00+9сз686133 0.0 1024742
02:00+7с457595 2.3 1026481
05:00+6ссв237065 2.4 1028243
08:00+6св47640 0.0 1029385
11:00+10всв55370 0.0 10271024
14:00+12всв34260 0.0 10231196
17:00+14всв452638 0.0 10201200
20:00+12св7933100 0.0 1018592